Location: Eaton
(41.3139°N, 82.0207°W)
Time: 08:30:05
(UTC+00:00)

Meteor 1-29 - Pass Details

Date: 17 June 2021
Orbit: 434 x 457 km, 97.7° (Epoch: 27 July)

Event Time Altitude Azimuth Distance (km) Brightness Sun altitude
Rises 07:50:10 0° 9° (N) 2,480 7.9 -17.5°
Reaches altitude 10° 07:52:14 10° 7° (N) 1,599 6.7 -17.3°
Maximum altitude 07:55:38 68° 284° (WNW) 490 2.9 -16.9°
Enters shadow 07:56:34 43° 217° (SW) 641 3.2 -16.8°
